QAK053 MMMX-MMVR

Flight info

Callsign QAK053
Flight time 0h 34m
Altitude 25000
Route UKUNO3A UKUNO UT108 TEVET TEVET1A
Aircraft A320/M-SDE3FGHIRWY/LB1

Departure

Time 2026-04-15 05:42
Airport Mexico City Benito Juárez International Airport (MMMX)

Arrival

Time 2026-04-15 06:17
Airport General Heriberto Jara International Airport (MMVR)
Time Latitude Longitude Altitude Speed Heading
2026-04-15 04:56 19.42288 -99.08003 7303 ft 0 kts 210°
2026-04-15 05:20 19.42302 -99.07994 7303 ft 4 kts 220°
2026-04-15 05:21 19.42320 -99.07973 7303 ft 4 kts 245°
2026-04-15 05:21 19.42326 -99.07947 7303 ft 4 kts 288°
2026-04-15 05:21 19.42324 -99.07939 7303 ft 0 kts 300°
2026-04-15 05:32 19.42325 -99.07942 7303 ft 2 kts 301°
2026-04-15 05:32 19.42347 -99.07972 7303 ft 6 kts 312°
2026-04-15 05:32 19.42371 -99.08001 7303 ft 7 kts 309°
2026-04-15 05:32 19.42389 -99.08051 7303 ft 8 kts 287°
2026-04-15 05:33 19.42406 -99.08110 7303 ft 9 kts 287°
2026-04-15 05:33 19.42414 -99.08175 7303 ft 9 kts 251°
2026-04-15 05:33 19.42426 -99.08231 7303 ft 9 kts 321°
2026-04-15 05:33 19.42482 -99.08264 7303 ft 10 kts 331°
2026-04-15 05:34 19.42543 -99.08303 7303 ft 11 kts 322°
2026-04-15 05:34 19.42565 -99.08348 7303 ft 8 kts 265°
2026-04-15 05:34 19.42587 -99.08398 7303 ft 8 kts 298°
2026-04-15 05:34 19.42612 -99.08454 7303 ft 9 kts 294°
2026-04-15 05:35 19.42620 -99.08474 7303 ft 0 kts 294°
2026-04-15 05:39 19.42630 -99.08498 7303 ft 8 kts 293°
2026-04-15 05:39 19.42654 -99.08556 7303 ft 9 kts 294°
2026-04-15 05:39 19.42693 -99.08581 7304 ft 6 kts 26°
2026-04-15 05:39 19.42715 -99.08554 7304 ft 0 kts 57°
2026-04-15 05:41 19.42728 -99.08532 7304 ft 13 kts 57°
2026-04-15 05:41 19.42840 -99.08336 7303 ft 68 kts 58°
2026-04-15 05:41 19.43177 -99.07734 7305 ft 127 kts 59°
2026-04-15 05:42 19.43727 -99.06748 7304 ft 178 kts 60°
2026-04-15 05:42 19.44351 -99.05601 7920 ft 180 kts 57°
2026-04-15 05:42 19.44984 -99.04443 8857 ft 182 kts 58°
2026-04-15 05:42 19.45635 -99.03292 9304 ft 184 kts 58°
2026-04-15 05:43 19.46354 -99.02120 9693 ft 196 kts 55°
2026-04-15 05:43 19.47149 -99.00889 10140 ft 208 kts 56°
2026-04-15 05:43 19.47966 -98.99559 10377 ft 224 kts 57°
2026-04-15 05:43 19.48854 -98.98101 10470 ft 247 kts 57°
2026-04-15 05:44 19.49818 -98.96487 10620 ft 271 kts 58°
2026-04-15 05:44 19.50613 -98.95101 10820 ft 287 kts 59°
2026-04-15 05:44 19.51617 -98.93304 11525 ft 286 kts 59°
2026-04-15 05:44 19.52635 -98.91476 12196 ft 290 kts 58°
2026-04-15 05:45 19.53483 -98.89528 12830 ft 295 kts 72°
2026-04-15 05:45 19.53984 -98.87671 13411 ft 298 kts 73°
2026-04-15 05:45 19.54528 -98.85605 14039 ft 302 kts 73°
2026-04-15 05:45 19.55090 -98.83445 14602 ft 306 kts 74°
2026-04-15 05:46 19.55657 -98.81261 15180 ft 309 kts 74°
2026-04-15 05:46 19.56234 -98.79053 15755 ft 313 kts 74°
2026-04-15 05:46 19.56825 -98.76808 16336 ft 317 kts 74°
2026-04-15 05:46 19.57353 -98.74549 16901 ft 321 kts 81°
2026-04-15 05:47 19.57475 -98.72183 17462 ft 324 kts 94°
2026-04-15 05:47 19.57137 -98.69816 18028 ft 327 kts 103°
2026-04-15 05:47 19.56659 -98.67449 18577 ft 329 kts 103°
2026-04-15 05:47 19.56180 -98.65062 19086 ft 332 kts 103°
2026-04-15 05:48 19.55701 -98.62661 19595 ft 335 kts 103°
2026-04-15 05:48 19.55220 -98.60237 20084 ft 337 kts 103°
2026-04-15 05:48 19.54723 -98.57748 20264 ft 353 kts 103°
2026-04-15 05:48 19.54650 -98.57388 20283 ft 355 kts 103°
2026-04-15 05:49 19.54124 -98.54773 20404 ft 371 kts 103°
2026-04-15 05:49 19.53577 -98.52044 20526 ft 386 kts 103°
2026-04-15 05:49 19.53012 -98.49214 20646 ft 400 kts 103°
2026-04-15 05:49 19.52430 -98.46296 20938 ft 408 kts 103°
2026-04-15 05:50 19.51837 -98.43337 21366 ft 412 kts 103°
2026-04-15 05:50 19.51238 -98.40352 21838 ft 416 kts 103°
2026-04-15 05:50 19.50026 -98.34305 22733 ft 423 kts 103°
2026-04-15 05:51 19.49410 -98.31241 23163 ft 426 kts 103°
2026-04-15 05:51 19.48789 -98.28158 23584 ft 430 kts 103°
2026-04-15 05:51 19.48162 -98.25051 23936 ft 433 kts 103°
2026-04-15 05:51 19.47528 -98.21921 24275 ft 436 kts 103°
2026-04-15 05:52 19.46891 -98.18775 24605 ft 439 kts 103°
2026-04-15 05:52 19.46249 -98.15603 24931 ft 442 kts 103°
2026-04-15 05:52 19.45604 -98.12413 25060 ft 443 kts 103°
2026-04-15 05:52 19.44965 -98.09242 25097 ft 438 kts 103°
2026-04-15 05:53 19.44331 -98.06093 25096 ft 436 kts 103°
2026-04-15 05:53 19.43696 -98.02949 25100 ft 436 kts 103°
2026-04-15 05:53 19.43220 -97.99777 25102 ft 437 kts 97°
2026-04-15 05:53 19.42914 -97.96580 25103 ft 437 kts 97°
2026-04-15 05:54 19.42619 -97.93415 25102 ft 439 kts 96°
2026-04-15 05:54 19.42313 -97.90165 25103 ft 437 kts 97°
2026-04-15 05:54 19.42000 -97.86961 25106 ft 437 kts 97°
2026-04-15 05:54 19.41681 -97.83761 25108 ft 437 kts 97°
2026-04-15 05:55 19.41364 -97.80566 25110 ft 437 kts 97°
2026-04-15 05:55 19.41051 -97.77370 25112 ft 437 kts 97°
2026-04-15 05:55 19.40743 -97.74170 25115 ft 437 kts 97°
2026-04-15 05:55 19.40435 -97.70970 25117 ft 437 kts 97°
2026-04-15 05:56 19.40124 -97.67773 25118 ft 436 kts 97°
2026-04-15 05:56 19.39818 -97.64633 25113 ft 436 kts 97°
2026-04-15 05:56 19.39499 -97.61388 25113 ft 436 kts 97°
2026-04-15 05:56 19.39185 -97.58196 25112 ft 436 kts 97°
2026-04-15 05:57 19.38867 -97.55001 25110 ft 436 kts 97°
2026-04-15 05:57 19.38553 -97.51858 25109 ft 436 kts 97°
2026-04-15 05:57 19.38232 -97.48625 25106 ft 436 kts 97°
2026-04-15 05:57 19.37921 -97.45475 25112 ft 436 kts 97°
2026-04-15 05:58 19.37607 -97.42286 25109 ft 436 kts 97°
2026-04-15 05:58 19.37293 -97.39090 25111 ft 436 kts 97°
2026-04-15 05:58 19.36978 -97.35900 25112 ft 436 kts 97°
2026-04-15 05:58 19.36663 -97.32704 25112 ft 437 kts 97°
2026-04-15 05:59 19.36348 -97.29509 25114 ft 437 kts 97°
2026-04-15 05:59 19.36030 -97.26300 25112 ft 437 kts 97°
2026-04-15 05:59 19.35707 -97.23096 25109 ft 438 kts 97°
2026-04-15 05:59 19.35383 -97.19896 25109 ft 438 kts 97°
2026-04-15 06:00 19.35056 -97.16663 25131 ft 445 kts 97°
2026-04-15 06:00 19.34725 -97.13401 25086 ft 446 kts 97°
2026-04-15 06:00 19.34397 -97.10147 24568 ft 436 kts 96°
2026-04-15 06:00 19.34086 -97.07056 24433 ft 410 kts 97°
2026-04-15 06:01 19.33831 -97.04118 24058 ft 393 kts 91°
2026-04-15 06:01 19.33808 -97.01257 23426 ft 385 kts 91°
2026-04-15 06:01 19.33790 -96.98445 22697 ft 379 kts 91°
2026-04-15 06:01 19.33770 -96.95670 21981 ft 373 kts 91°
2026-04-15 06:02 19.33746 -96.92943 21291 ft 368 kts 91°
2026-04-15 06:02 19.33722 -96.90252 20637 ft 362 kts 91°
2026-04-15 06:02 19.33697 -96.87611 20059 ft 356 kts 91°
2026-04-15 06:02 19.33680 -96.85887 19727 ft 352 kts 91°
2026-04-15 06:03 19.33656 -96.83317 19242 ft 348 kts 92°
2026-04-15 06:03 19.33630 -96.80771 18761 ft 344 kts 92°
2026-04-15 06:03 19.33604 -96.78248 18211 ft 345 kts 92°
2026-04-15 06:03 19.33571 -96.74855 17602 ft 345 kts 91°
2026-04-15 06:04 19.33556 -96.73149 17379 ft 342 kts 91°
2026-04-15 06:04 19.33535 -96.70636 17004 ft 340 kts 91°
2026-04-15 06:04 19.33510 -96.68142 16614 ft 339 kts 91°
2026-04-15 06:04 19.33482 -96.65649 16232 ft 338 kts 91°
2026-04-15 06:05 19.33455 -96.63170 15861 ft 336 kts 91°
2026-04-15 06:05 19.33430 -96.60698 15495 ft 335 kts 90°
2026-04-15 06:05 19.33408 -96.58232 15132 ft 334 kts 90°
2026-04-15 06:05 19.33385 -96.55811 14780 ft 332 kts 90°
2026-04-15 06:06 19.33362 -96.53380 14184 ft 329 kts 90°
2026-04-15 06:06 19.33336 -96.50962 13541 ft 330 kts 90°
2026-04-15 06:06 19.33311 -96.48807 13233 ft 327 kts 90°
2026-04-15 06:06 19.33280 -96.46388 12904 ft 324 kts 91°
2026-04-15 06:07 19.32868 -96.44061 12581 ft 322 kts 112°
2026-04-15 06:07 19.31686 -96.42083 12247 ft 318 kts 135°
2026-04-15 06:07 19.29910 -96.40729 11904 ft 315 kts 157°
2026-04-15 06:07 19.27834 -96.40024 11539 ft 313 kts 165°
2026-04-15 06:08 19.25742 -96.39405 11185 ft 312 kts 165°
2026-04-15 06:08 19.23659 -96.38789 10842 ft 310 kts 164°
2026-04-15 06:08 19.21594 -96.38175 10509 ft 308 kts 164°
2026-04-15 06:08 19.19541 -96.37563 10163 ft 306 kts 163°
2026-04-15 06:09 19.17507 -96.36956 9680 ft 301 kts 163°
2026-04-15 06:09 19.15504 -96.36357 9052 ft 297 kts 163°
2026-04-15 06:09 19.13582 -96.35781 8892 ft 276 kts 163°
2026-04-15 06:09 19.11805 -96.35248 8758 ft 255 kts 163°
2026-04-15 06:10 19.10137 -96.34748 8419 ft 245 kts 163°
2026-04-15 06:10 19.08510 -96.34261 7949 ft 241 kts 163°
2026-04-15 06:10 19.06899 -96.33779 7616 ft 240 kts 163°
2026-04-15 06:10 19.05300 -96.33300 7326 ft 238 kts 163°
2026-04-15 06:11 19.03671 -96.32810 6767 ft 249 kts 163°
2026-04-15 06:11 19.01965 -96.32298 6204 ft 258 kts 163°
2026-04-15 06:11 19.00265 -96.31784 5835 ft 251 kts 161°
2026-04-15 06:11 18.98769 -96.30895 5284 ft 247 kts 136°
2026-04-15 06:12 18.97798 -96.29424 4743 ft 245 kts 111°
2026-04-15 06:12 18.97398 -96.27691 4202 ft 241 kts 101°
2026-04-15 06:12 18.97082 -96.25987 3691 ft 230 kts 101°
2026-04-15 06:12 18.96800 -96.24360 3293 ft 221 kts 95°
2026-04-15 06:13 18.97154 -96.22852 2995 ft 212 kts 53°
2026-04-15 06:13 18.98355 -96.22042 2703 ft 207 kts 14°
2026-04-15 06:13 18.99784 -96.21838 2147 ft 205 kts 10°
2026-04-15 06:13 19.01161 -96.21633 1995 ft 194 kts 11°
2026-04-15 06:14 19.02463 -96.21415 1762 ft 186 kts 12°
2026-04-15 06:14 19.03705 -96.21177 1599 ft 176 kts 13°
2026-04-15 06:14 19.04855 -96.20889 1554 ft 166 kts 17°
2026-04-15 06:14 19.05968 -96.20582 1504 ft 161 kts 16°
2026-04-15 06:15 19.07009 -96.20321 1503 ft 147 kts 14°
2026-04-15 06:15 19.08015 -96.20153 1314 ft 147 kts 11°
2026-04-15 06:15 19.09025 -96.19978 1046 ft 147 kts 11°
2026-04-15 06:15 19.10005 -96.19773 756 ft 144 kts 14°
2026-04-15 06:16 19.10976 -96.19488 487 ft 143 kts 15°
2026-04-15 06:16 19.11931 -96.19298 284 ft 142 kts 11°
2026-04-15 06:16 19.12884 -96.19092 121 ft 136 kts 11°
2026-04-15 06:16 19.13705 -96.18919 84 ft 89 kts 12°
2026-04-15 06:17 19.14029 -96.18848 81 ft 20 kts 12°
2026-04-15 06:17 19.14171 -96.18818 83 ft 22 kts 11°
2026-04-15 06:17 19.14322 -96.18783 82 ft 23 kts 13°
2026-04-15 06:17 19.14377 -96.18706 82 ft 12 kts 97°
2026-04-15 06:18 19.14364 -96.18635 88 ft 8 kts 101°
2026-04-15 06:18 19.14363 -96.18628 87 ft 0 kts 101°
2026-04-15 06:18 19.14362 -96.18622 86 ft 4 kts 101°
2026-04-15 06:19 19.14355 -96.18585 86 ft 4 kts 101°
2026-04-15 06:19 19.14350 -96.18559 87 ft 3 kts 101°
2026-04-15 06:19 19.14346 -96.18539 86 ft 4 kts 101°
2026-04-15 06:19 19.14342 -96.18518 85 ft 2 kts 103°
2026-04-15 06:20 19.14325 -96.18487 88 ft 8 kts 119°
2026-04-15 06:20 19.14315 -96.18445 86 ft 5 kts 100°
2026-04-15 06:20 19.14311 -96.18427 88 ft 2 kts 101°
2026-04-15 06:20 19.14311 -96.18423 89 ft 0 kts 101°